Terminal Aerodrome Forecast
Issued by NWS

Home | Current Version | Previous Version | Text Only | Print | Product List | Glossary On
Versions: 1 2 3 4 5 6 7 8 9 10 11 12 13 14 15 16 17 18 19 20 21 22 23 24 25 26 27 28
000
FTUS43 KLSX 150438 AAA
TAFSUS
TAF AMD
KSUS 150438Z 1505/1524 VRB03KT 3SM BR SCT002
     FM150900 VRB03KT 1SM BR BKN002
     FM151500 20005KT P6SM SCT040 BKN250=

USA.gov is the U.S. government's official web portal to all federal, state and local government web resources and services.